FLOCK 3P-76

Last updated on Wed Feb 14 2018 16:20:32 GMT+0000 (Coordinated Universal Time)

1 42019U 17008BZ 18044.90114413 .00001421 00000-0 61788-4 0 9994 2 42019 97.4686 110.5837 0009937 74.3710 285.8623 15.23899008 55169
UTC large
Height (km)
Speed (km/s)
/
Latitude / Longitude
Inclination (degrees)
Orbital Period (minutes)
Azimuth
Elevation
Range (km)
Doppler Factor

Next 0 passes for location: London (51.5072 / 0.1276)

Sorry there are no passes over London.